This is the latest recevied weather packets stored in our database for station/object SQ7ACP-3. If no packets are shown the sender has not sent any weather packets the latest 1 day(s).
| Time | Temp. | Humidity | Pressure | Rain* | Wind** | Luminosity | Snow |
|---|---|---|---|---|---|---|---|
| 1777965478 | 20° C | 40% | 1009.3 hPa | 0 mm | 1.34 m/s, 187° | - | - |
| 1777964865 | 19.44° C | 40% | 1009.3 hPa | 0 mm | 1.79 m/s, 197° | - | - |
| 1777964265 | 18.89° C | 41% | 1009.4 hPa | 0 mm | 0.89 m/s, 187° | - | - |
| 1777963665 | 18.33° C | 43% | 1009.5 hPa | 0 mm | 1.79 m/s, 192° | - | - |
| 1777963053 | 17.78° C | 45% | 1009.6 hPa | 0 mm | 0.89 m/s, 199° | - | - |
| 1777962440 | 17.78° C | 47% | 1009.6 hPa | 0 mm | 0.89 m/s, 204° | - | - |
| 1777961840 | 17.22° C | 49% | 1009.6 hPa | 0 mm | 0.89 m/s, 176° | - | - |
| 1777961240 | 16.67° C | 50% | 1009.8 hPa | 0 mm | 0.89 m/s, 184° | - | - |
| 1777960628 | 16.11° C | 51% | 1009.8 hPa | 0 mm | 0.89 m/s, 184° | - | - |
| 1777960027 | 15.56° C | 53% | 1009.8 hPa | 0 mm | 0.89 m/s, 174° | - | - |
| 1777959415 | 15.56° C | 55% | 1009.9 hPa | 0 mm | 0.89 m/s, 180° | - | - |
| 1777958815 | 15° C | 59% | 1009.9 hPa | 0 mm | 0.89 m/s, 185° | - | - |
| 1777958215 | 14.44° C | 61% | 1009.9 hPa | 0 mm | 1.34 m/s, 192° | - | - |
| 1777957603 | 13.89° C | 62% | 1009.9 hPa | 0 mm | 0.89 m/s, 191° | - | - |
| 1777956995 | 13.33° C | 64% | 1009.9 hPa | 0 mm | 0.89 m/s, 174° | - | - |
| 1777956390 | 12.78° C | 66% | 1009.8 hPa | 0 mm | 0.89 m/s, 195° | - | - |
| 1777955778 | 12.78° C | 72% | 1009.7 hPa | 0 mm | 0 m/s | - | - |
| 1777955178 | 12.78° C | 71% | 1009.7 hPa | 0 mm | 0 m/s | - | - |
| 1777954578 | 12.78° C | 70% | 1009.8 hPa | 0 mm | 0.45 m/s, 189° | - | - |
| 1777953965 | 12.22° C | 72% | 1009.9 hPa | 0 mm | 0 m/s | - | - |
| 1777953353 | 12.22° C | 73% | 1009.9 hPa | 0 mm | 0 m/s | - | - |
| 1777952752 | 12.22° C | 75% | 1010 hPa | 0 mm | 0 m/s | - | - |
| 1777952140 | 11.67° C | 75% | 1009.9 hPa | 0 mm | 0.45 m/s, 184° | - | - |
| 1777951532 | 13.33° C | 73% | 1010.3 hPa | 0 mm | 0 m/s | - | - |
| 1777943636 | 13.33° C | 73% | 1010.3 hPa | 0 mm | 0 m/s | - | - |
* Rain latest hour (hover to see other rain measurements)
** Current wind speed in m/s (hover to see current wind gust speed)